[[{"header":{"parameterUnit":"m.s-1","parameterCategory":1,"la1":30.2991,"la2":30.254,"lo1":-89.0895,"lo2":-89.0444,"dy":0.0017,"dx":0.0017,"nx":28,"ny":28,"refTime":"2024-12-02T03:00:00:Z","depth":0,"parameterNumber":2,"parameterNumberName":"U-component_of_WINDS"},"data":[0,0,0,0,0,0,0,0,0,0,0,0,0,0,0,0,0,0,0,0,0,0,0,0,0,0,0,0,0,0,0,0,0,0,0,0,0,0,0,0,0,0,0,0,0,0,0,0,0,0,0,0,0,0,0,0,0,0,-0.2467,-0.2467,0,-0.2499,-0.2499,-0.25,-0.2479,-0.2478,-0.2477,-0.2476,-0.2511,-0.2513,-0.2515,0,0,0,0,0,0,0,0,0,0,0,0,0,-0.2388,-0.2389,-0.2467,-0.2467,-0.2467,-0.2499,-0.2499,-0.25,-0.2479,-0.2478,-0.2476,-0.2475,-0.2511,-0.2513,-0.2515,0,0,0,0,0,0,0,0,0,0,0,0,0,-0.2421,-0.239,-0.2467,-0.2461,-0.246,-0.2499,-0.2499,-0.25,-0.2479,-0.2478,-0.2476,-0.2475,-0.251,-0.2513,-0.2516,-0.2562,0,0,-0.2524,-0.2525,0,0,0,0,0,0,0,0,-0.2419,-0.2424,-0.2461,-0.2461,-0.2461,-0.2483,-0.2485,-0.2521,-0.2479,-0.2472,-0.2476,-0.2474,-0.2503,-0.2507,-0.2516,-0.2564,-0.2566,-0.2524,-0.2526,-0.2527,-0.2528,0,0,0,0,0,0,0,-0.2417,-0.2423,-0.2479,-0.2462,-0.2462,-0.2457,-0.246,-0.2491,-0.2496,-0.2473,-0.2471,-0.2475,-0.2503,-0.2513,-0.2517,-0.2566,-0.2524,-0.2527,-0.2528,-0.253,-0.2652,-0.2654,0,0,0,0,0,0,-0.2415,-0.2421,-0.2478,-0.248,-0.2436,-0.2459,-0.2463,-0.2478,-0.2495,-0.2496,-0.2476,-0.2474,-0.2509,-0.2513,-0.2518,-0.2573,-0.2527,-0.253,-0.2531,-0.265,-0.2652,-0.2654,0,0,0,0,0,0,-0.2413,-0.242,-0.2477,-0.245,-0.2457,-0.2462,-0.2479,-0.2479,-0.2489,-0.2498,-0.2499,-0.2486,-0.2508,-0.2514,-0.2551,-0.2574,-0.2531,-0.2534,-0.2649,-0.2651,-0.2653,-0.2684,0,0,0,0,0,0,-0.2411,-0.242,-0.2438,-0.2451,-0.2459,-0.251,-0.248,-0.2481,-0.2494,-0.2491,-0.2507,-0.2509,-0.2508,-0.2547,-0.2554,-0.2577,-0.2536,-0.2647,-0.265,-0.2653,-0.2681,-0.2687,-0.2692,0,0,0,0,0,-0.2408,-0.2446,-0.2439,-0.2446,-0.2481,-0.2511,-0.2515,-0.2513,-0.2496,-0.2514,-0.2519,-0.2508,-0.257,-0.2551,-0.2558,-0.2583,-0.2645,-0.2649,-0.2652,-0.2678,-0.2686,-0.2692,0,0,0,0,0,0,-0.2437,-0.2448,-0.244,-0.2483,-0.2496,-0.2507,-0.253,-0.2521,-0.254,-0.2537,-0.2533,-0.2537,-0.2575,-0.2583,-0.2561,-0.2628,-0.2605,-0.261,-0.2622,-0.2629,-0.2635,-0.2633,-0.2538,0,0,0,0,0,-0.2448,-0.2471,-0.2479,-0.2516,-0.2523,-0.2525,-0.2538,-0.2535,-0.2549,-0.2555,-0.2563,-0.2577,-0.2599,-0.2615,-0.2636,-0.2681,-0.2684,-0.2702,-0.2707,-0.2712,-0.2717,-0.274,-0.2747,-0.2666,-0.2666,-0.2666,0,0,-0.2472,-0.248,-0.2496,-0.2522,-0.2532,-0.2556,-0.253,-0.2557,-0.2575,-0.2559,-0.2594,-0.26,-0.2616,-0.2657,-0.2675,-0.2664,-0.274,-0.2716,-0.272,-0.2722,-0.2744,-0.2752,-0.2759,-0.2668,-0.2668,-0.2667,0,0,-0.2527,-0.2536,-0.2567,-0.2577,-0.2591,-0.2592,-0.2599,-0.2612,-0.2615,-0.2649,-0.2637,-0.2658,-0.2698,-0.2709,-0.272,-0.2776,-0.2767,-0.2783,-0.2813,-0.2836,-0.2842,-0.2848,-0.2868,-0.2875,-0.2788,-0.2788,-0.2788,0,-0.2555,-0.259,-0.2585,-0.2612,-0.2624,-0.2608,-0.2639,-0.2649,-0.2671,-0.2679,-0.2666,-0.2713,-0.2723,-0.2765,-0.2779,-0.2788,-0.2796,-0.2782,-0.2842,-0.2847,-0.2853,-0.2871,-0.2879,-0.279,-0.279,-0.2789,-0.2789,0,-0.2624,-0.2648,-0.2671,-0.269,-0.2705,-0.2734,-0.2733,-0.2748,-0.2742,-0.2744,-0.2779,-0.2789,-0.2812,-0.2821,-0.2817,-0.2863,-0.2855,-0.2842,-0.2819,-0.2862,-0.288,-0.2887,-0.2793,-0.2792,-0.2791,-0.2791,0,0,-0.2701,-0.2714,-0.2723,-0.273,-0.2744,-0.2763,-0.279,-0.2811,-0.2824,-0.2838,-0.2861,-0.2893,-0.288,-0.2893,-0.2889,-0.2909,-0.2952,-0.2893,-0.2893,-0.2903,-0.3002,-0.3012,-0.3021,-0.2945,-0.2946,-0.2947,-0.3001,0,-0.2756,-0.2804,-0.2799,-0.2844,-0.2866,-0.2851,-0.2875,-0.2886,-0.2888,-0.2907,-0.2909,-0.2932,-0.2913,-0.292,-0.2939,-0.2943,-0.2972,-0.2939,-0.2967,-0.2968,-0.2964,-0.303,-0.3041,-0.3091,-0.3007,-0.3009,-0.3009,0,-0.2829,-0.2844,-0.2891,-0.2899,-0.2908,-0.293,-0.2948,-0.2966,-0.2977,-0.2977,-0.299,-0.2982,-0.3009,-0.2985,-0.3022,-0.3,-0.3011,-0.3014,-0.3016,-0.3019,-0.2992,-0.3035,-0.3107,-0.3115,-0.302,-0.3019,-0.3019,0,-0.288,-0.2912,-0.2944,-0.2951,-0.2962,-0.2977,-0.2982,-0.2992,-0.3004,-0.3019,-0.3027,-0.3045,-0.3056,-0.307,-0.3067,-0.305,-0.3106,-0.3081,-0.3106,-0.3106,-0.312,-0.3119,-0.3195,-0.3126,-0.3126,-0.3126,-0.3126,0,-0.2943,-0.2973,-0.2966,-0.2987,-0.3019,-0.3011,-0.3044,-0.3047,-0.3055,-0.3076,-0.3063,-0.3082,-0.3077,-0.3096,-0.3094,-0.3125,-0.313,-0.3131,-0.313,-0.3132,-0.3132,-0.314,-0.3136,-0.3128,-0.3128,-0.3127,-0.3127,0,-0.3006,-0.3003,-0.3037,-0.3043,-0.3045,-0.3069,-0.3074,-0.3093,-0.3092,-0.3118,-0.3123,-0.3124,-0.3145,-0.3143,-0.3168,-0.3166,-0.3204,-0.32,-0.32,-0.3199,-0.3225,-0.3222,-0.3309,-0.3319,-0.3244,-0.3244,-0.3245,0,-0.3047,-0.3069,-0.3077,-0.3089,-0.3094,-0.3114,-0.3125,-0.3119,-0.3131,-0.3144,-0.3161,-0.3181,-0.3197,-0.3231,-0.3234,-0.3252,-0.3248,-0.3276,-0.325,-0.3251,-0.3248,-0.3246,-0.3248,-0.3282,-0.3283,-0.3283,-0.3284,0,-0.312,-0.3117,-0.3133,-0.3149,-0.3162,-0.3175,-0.3186,-0.3196,-0.319,-0.3205,-0.3226,-0.3237,-0.3261,-0.3281,-0.3297,-0.3303,-0.3293,-0.3292,-0.3299,-0.3301,-0.3301,-0.3301,-0.3214,-0.329,-0.329,-0.3289,-0.3289,-0.3289,-0.3173,-0.3191,-0.3199,-0.3217,-0.3224,-0.3234,-0.3251,-0.3252,-0.3269,-0.3287,-0.3282,-0.3305,-0.3314,-0.3335,-0.3342,-0.336,-0.335,-0.336,-0.3363,-0.3365,-0.3368,-0.3297,-0.3363,-0.3363,-0.3363,-0.3363,-0.3363,0,-0.3245,-0.3249,-0.3265,-0.328,-0.3294,-0.3281,-0.3292,-0.3305,-0.3325,-0.3334,-0.3349,-0.3372,-0.339,-0.3393,-0.341,-0.3424,-0.342,-0.3429,-0.3428,-0.3429,-0.3376,-0.3369,-0.3432,-0.3432,-0.3432,-0.3432,-0.3432,-0.3432,-0.3285,-0.3314,-0.3311,-0.3344,-0.3347,-0.3369,-0.3376,-0.3385,-0.3391,-0.3417,-0.3432,-0.3433,-0.3439,-0.3456,-0.3472,-0.3473,-0.348,-0.3491,-0.3489,-0.344,-0.3433,-0.3427,-0.3419,-0.3492,-0.3492,-0.354,-0.3541,-0.3541]},{"header":{"parameterUnit":"m.s-1","parameterCategory":1,"la1":30.2991,"la2":30.254,"lo1":-89.0895,"lo2":-89.0444,"dy":0.0017,"dx":0.0017,"nx":28,"ny":28,"refTime":"2024-12-02T03:00:00:Z","depth":0,"parameterNumber":3,"parameterNumberName":"V-component_of_WINDS"},"data":[0,0,0,0,0,0,0,0,0,0,0,0,0,0,0,0,0,0,0,0,0,0,0,0,0,0,0,0,0,0,0,0,0,0,0,0,0,0,0,0,0,0,0,0,0,0,0,0,0,0,0,0,0,0,0,0,0,0,-4.22,-4.2201,0,-4.2323,-4.2324,-4.2326,-4.2264,-4.2261,-4.2258,-4.2255,-4.2376,-4.2382,-4.2388,0,0,0,0,0,0,0,0,0,0,0,0,0,-4.1907,-4.1913,-4.22,-4.2201,-4.2203,-4.2323,-4.2324,-4.2326,-4.2265,-4.2261,-4.2257,-4.2253,-4.2374,-4.2381,-4.2388,0,0,0,0,0,0,0,0,0,0,0,0,0,-4.2032,-4.1914,-4.22,-4.2187,-4.2187,-4.2322,-4.2324,-4.2326,-4.2265,-4.2261,-4.2256,-4.2251,-4.2371,-4.238,-4.2389,-4.2543,0,0,-4.2418,-4.2422,0,0,0,0,0,0,0,0,-4.2025,-4.2043,-4.2187,-4.2188,-4.2188,-4.2273,-4.2265,-4.2399,-4.2267,-4.2235,-4.2254,-4.2249,-4.2345,-4.2356,-4.239,-4.2549,-4.2554,-4.2419,-4.2424,-4.2428,-4.2431,0,0,0,0,0,0,0,-4.2017,-4.2037,-4.2248,-4.2189,-4.219,-4.2173,-4.2186,-4.229,-4.2315,-4.2238,-4.2234,-4.2249,-4.2344,-4.2381,-4.2392,-4.2555,-4.2418,-4.2427,-4.2432,-4.2436,-4.2845,-4.285,0,0,0,0,0,0,-4.2009,-4.2031,-4.2244,-4.2252,-4.2093,-4.2182,-4.2196,-4.2251,-4.2314,-4.2319,-4.2253,-4.2246,-4.2367,-4.2381,-4.2396,-4.258,-4.2428,-4.2437,-4.2442,-4.284,-4.2847,-4.2852,0,0,0,0,0,0,-4.2003,-4.2029,-4.2239,-4.214,-4.2166,-4.2193,-4.2254,-4.2256,-4.2292,-4.2326,-4.233,-4.2286,-4.2364,-4.2383,-4.2507,-4.2583,-4.2441,-4.245,-4.2834,-4.2842,-4.2849,-4.2949,0,0,0,0,0,0,-4.1995,-4.2027,-4.2087,-4.2142,-4.2171,-4.235,-4.2259,-4.2262,-4.2309,-4.2301,-4.2358,-4.2363,-4.2362,-4.2493,-4.2516,-4.2593,-4.2457,-4.2827,-4.2838,-4.2847,-4.2939,-4.2959,-4.2977,0,0,0,0,0,-4.1985,-4.2109,-4.209,-4.2117,-4.2247,-4.2355,-4.2371,-4.2369,-4.2315,-4.2375,-4.2397,-4.2361,-4.2571,-4.2507,-4.2532,-4.2613,-4.2822,-4.2835,-4.2846,-4.293,-4.2955,-4.2976,0,0,0,0,0,0,-4.2061,-4.2116,-4.2096,-4.2242,-4.2295,-4.2344,-4.242,-4.2395,-4.2463,-4.2452,-4.2445,-4.2458,-4.2587,-4.2612,-4.2539,-4.2764,-4.2688,-4.2706,-4.2744,-4.2767,-4.2786,-4.2777,-4.2465,0,0,0,0,0,-4.2095,-4.2179,-4.2222,-4.2347,-4.2374,-4.2393,-4.2439,-4.2433,-4.2486,-4.2508,-4.2538,-4.259,-4.2667,-4.2719,-4.2792,-4.2942,-4.2953,-4.301,-4.3029,-4.3044,-4.3059,-4.314,-4.3165,-4.2891,-4.2891,-4.2891,0,0,-4.2165,-4.2206,-4.226,-4.2363,-4.2403,-4.2489,-4.2412,-4.2506,-4.2569,-4.2521,-4.2641,-4.2665,-4.2722,-4.286,-4.2922,-4.2885,-4.3137,-4.3059,-4.3071,-4.3078,-4.3155,-4.3181,-4.3204,-4.2899,-4.2898,-4.2897,0,0,-4.2338,-4.2378,-4.2486,-4.2528,-4.259,-4.2601,-4.2627,-4.2681,-4.2695,-4.2816,-4.2781,-4.2855,-4.2989,-4.3031,-4.307,-4.3259,-4.3228,-4.3282,-4.3381,-4.346,-4.3481,-4.35,-4.3567,-4.3591,-4.3297,-4.3297,-4.3298,0,-4.2418,-4.2548,-4.2544,-4.2642,-4.2688,-4.265,-4.2759,-4.2799,-4.2881,-4.2913,-4.287,-4.3038,-4.3073,-4.322,-4.3266,-4.3299,-4.3327,-4.3276,-4.3479,-4.3498,-4.3515,-4.3579,-4.3604,-4.3304,-4.3303,-4.3302,-4.3302,0,-4.2643,-4.2734,-4.2813,-4.2895,-4.295,-4.3053,-4.3063,-4.3119,-4.3108,-4.3123,-4.3245,-4.3286,-4.3367,-4.3401,-4.3391,-4.3547,-4.3522,-4.3479,-4.3402,-4.3548,-4.3608,-4.3632,-4.3313,-4.331,-4.3309,-4.3307,0,0,-4.2868,-4.2947,-4.2976,-4.3012,-4.3077,-4.3147,-4.3247,-4.3327,-4.3375,-4.3432,-4.3515,-4.3629,-4.3591,-4.3635,-4.3628,-4.3697,-4.3843,-4.3646,-4.3647,-4.3681,-4.4017,-4.4049,-4.4078,-4.3823,-4.3828,-4.3832,-4.4012,0,-4.3045,-4.3223,-4.3222,-4.3386,-4.3469,-4.3433,-4.352,-4.3569,-4.3585,-4.3657,-4.3674,-4.3755,-4.3698,-4.3724,-4.3791,-4.3812,-4.3911,-4.3798,-4.3899,-4.3903,-4.3887,-4.4109,-4.4143,-4.4312,-4.4036,-4.404,-4.4042,0,-4.3277,-4.3343,-4.3516,-4.3568,-4.3603,-4.3682,-4.3755,-4.3825,-4.3878,-4.3885,-4.3935,-4.3917,-4.4017,-4.3937,-4.4074,-4.3998,-4.4039,-4.4055,-4.4062,-4.4071,-4.3982,-4.4124,-4.4365,-4.4391,-4.4079,-4.4076,-4.4074,0,-4.3424,-4.3556,-4.3676,-4.3709,-4.3773,-4.3829,-4.3858,-4.3907,-4.3955,-4.4019,-4.405,-4.4123,-4.4164,-4.4221,-4.4223,-4.4165,-4.4361,-4.4281,-4.4369,-4.4369,-4.4412,-4.4409,-4.4663,-4.4438,-4.4438,-4.4437,-4.4437,0,-4.3622,-4.3729,-4.3743,-4.3817,-4.3935,-4.3932,-4.4049,-4.4072,-4.4116,-4.4192,-4.4165,-4.4237,-4.4236,-4.4309,-4.4311,-4.4424,-4.4442,-4.445,-4.4449,-4.4453,-4.4452,-4.4479,-4.4468,-4.4444,-4.4443,-4.4441,-4.444,0,-4.3807,-4.3821,-4.3949,-4.4,-4.4015,-4.41,-4.4142,-4.4212,-4.4226,-4.4323,-4.4345,-4.4367,-4.4451,-4.4459,-4.4556,-4.4557,-4.4694,-4.4681,-4.4677,-4.4675,-4.4762,-4.4753,-4.5042,-4.508,-4.483,-4.4833,-4.4835,0,-4.3933,-4.4014,-4.4074,-4.4124,-4.4157,-4.4238,-4.4288,-4.4287,-4.434,-4.4407,-4.4468,-4.455,-4.4615,-4.4751,-4.4774,-4.4848,-4.4836,-4.4933,-4.4847,-4.4848,-4.4838,-4.4833,-4.4841,-4.4949,-4.4952,-4.4954,-4.4956,0,-4.4155,-4.4158,-4.4232,-4.4308,-4.4368,-4.4428,-4.4483,-4.4525,-4.4531,-4.4591,-4.4678,-4.4729,-4.4829,-4.491,-4.4983,-4.5011,-4.4985,-4.4983,-4.5007,-4.5011,-4.5006,-4.501,-4.4722,-4.4976,-4.4974,-4.4973,-4.4972,-4.4971,-4.4315,-4.4385,-4.4439,-4.4521,-4.4563,-4.4616,-4.4684,-4.4706,-4.4779,-4.4862,-4.4857,-4.4952,-4.5002,-4.5097,-4.5131,-4.5204,-4.5172,-4.5206,-4.5215,-4.5224,-4.5233,-4.4994,-4.5217,-4.5217,-4.5216,-4.5216,-4.5215,0,-4.4536,-4.4568,-4.4644,-4.4724,-4.4788,-4.4759,-4.4819,-4.4874,-4.496,-4.5009,-4.5075,-4.5174,-4.5252,-4.5282,-4.5358,-4.5411,-4.5401,-4.5431,-4.5427,-4.5434,-4.5258,-4.523,-4.5438,-4.5438,-4.5438,-4.5438,-4.5438,-4.5438,-4.4658,-4.4777,-4.4786,-4.4924,-4.4955,-4.505,-4.5086,-4.5134,-4.5174,-4.5286,-4.5352,-4.5371,-4.5413,-4.5491,-4.5562,-4.5568,-4.5597,-4.5633,-4.5634,-4.5469,-4.5446,-4.5425,-4.5398,-4.5639,-4.5639,-4.5804,-4.5806,-4.5807]}]]